| time (UTC) | temp F | wind direction | speed knots | gust knots | rain 1hr in | rain 24hr in | rain mn in | humidity % | barometer mb |
| 20260503204256 | 68 | 135 | 0.9 | 2.6 | 0.00 | 0.00 | 0.00 | 33 | 1015.9 |
| 20260503203733 | 68 | 135 | 0.0 | 0.0 | 0.00 | 0.00 | 0.00 | 33 | 1015.9 |
| 20260503203204 | 0 | 0.0 | 0.0 | 0.00 | 0.00 | 0.00 | 1015.9 | ||
| 20260503201505 | 0 | 0.0 | 0.0 | 0.00 | 0.00 | 0.00 | 1016.3 | ||
| 20260503193803 | 0 | 0.0 | 0.0 | 0.00 | 0.00 | 0.00 | 1016.6 | ||
| 20260503192633 | 64 | 135 | 2.6 | 5.2 | 0.00 | 0.00 | 0.00 | 35 | 1016.6 |
| 20260503192103 | 64 | 135 | 2.6 | 5.2 | 0.00 | 0.00 | 0.00 | 35 | 1016.6 |
| 20260503191603 | 64 | 135 | 2.6 | 2.6 | 0.00 | 0.00 | 0.00 | 36 | 1016.6 |
| 20260503190903 | 65 | 135 | 0.0 | 0.0 | 0.00 | 0.00 | 0.00 | 36 | 1016.6 |
| 20260503185904 | 0 | 0.0 | 0.0 | 0.00 | 0.00 | 0.00 | 1017.0 | ||
| 20260503184331 | 64 | 135 | 2.6 | 2.6 | 0.00 | 0.00 | 0.00 | 37 | 1017.3 |
| 20260503183433 | 0 | 0.0 | 0.0 | 0.00 | 0.00 | 0.00 | 1017.3 | ||
| 20260503182002 | 64 | 135 | 1.7 | 4.3 | 0.00 | 0.00 | 0.00 | 38 | 1017.3 |
| 20260503181500 | 64 | 135 | 4.3 | 4.3 | 0.00 | 0.00 | 0.00 | 38 | 1017.3 |
| 20260503180703 | 0 | 0.0 | 0.0 | 0.00 | 0.00 | 0.00 | 1017.3 | ||
| 20260503174632 | 62 | 225 | 1.7 | 2.6 | 0.00 | 0.00 | 0.00 | 38 | 1017.8 |
| 20260503174133 | 0 | 0.0 | 0.0 | 0.00 | 0.00 | 0.00 | 1017.8 | ||
| 20260503172502 | 61 | 135 | 0.0 | 0.9 | 0.00 | 0.00 | 0.00 | 40 | 1018.1 |
| 20260503171802 | 62 | 135 | 0.9 | 0.9 | 0.00 | 0.00 | 0.00 | 40 | 1018.1 |
| 20260503171333 | 0 | 0.0 | 0.0 | 0.00 | 0.00 | 0.00 | 1018.1 | ||
| 20260503150729 | 0 | 0.0 | 0.0 | 0.00 | 0.00 | 0.00 | 1019.2 | ||
| 20260503081324 | 36 | 135 | 0.0 | 0.0 | 0.00 | 0.00 | 0.00 | 88 | 1015.9 |
| 20260503080723 | 0 | 0.0 | 0.0 | 0.00 | 0.00 | 0.00 | 1015.9 | ||
| 20260503071952 | 38 | 135 | 0.9 | 1.7 | 0.00 | 0.00 | 0.00 | 84 | 1015.5 |
| 20260503054853 | 39 | 135 | 0.0 | 0.0 | 0.00 | 0.00 | 0.00 | 80 | 1015.5 |
| 20260503054054 | 39 | 135 | 0.0 | 0.0 | 0.00 | 0.00 | 0.00 | 80 | 1015.5 |
| 20260503053553 | 39 | 135 | 0.0 | 0.0 | 0.00 | 0.00 | 0.00 | 80 | 1015.5 |
| 20260503053042 | 39 | 135 | 0.0 | 0.0 | 0.00 | 0.00 | 0.00 | 80 | 1015.5 |
| 20260503052523 | 0 | 0.0 | 0.0 | 0.00 | 0.00 | 0.00 | 1015.5 | ||
| 20260503051050 | 39 | 135 | 0.0 | 0.0 | 0.00 | 0.00 | 0.00 | 78 | 1015.5 |
| 20260503045220 | 39 | 135 | 0.0 | 0.0 | 0.00 | 0.00 | 0.00 | 78 | 1015.5 |
| 20260503044721 | 40 | 135 | 0.0 | 0.0 | 0.00 | 0.00 | 0.00 | 78 | 1015.5 |
| 20260503044137 | 40 | 135 | 0.0 | 0.0 | 0.00 | 0.00 | 0.00 | 78 | 1015.5 |
| 20260503043620 | 41 | 135 | 0.0 | 0.0 | 0.00 | 0.00 | 0.00 | 77 | 1015.5 |
| 20260503042720 | 41 | 135 | 0.9 | 0.9 | 0.00 | 0.00 | 0.00 | 77 | 1015.5 |
| 20260503041820 | 0 | 0.0 | 0.0 | 0.00 | 0.00 | 0.00 | 1015.5 | ||
| 20260503040609 | 41 | 135 | 0.0 | 0.0 | 0.00 | 0.00 | 0.00 | 75 | 1015.5 |
| 20260503040053 | 41 | 135 | 0.0 | 0.0 | 0.00 | 0.00 | 0.00 | 75 | 1015.2 |
| 20260503035821 | 0 | 0.0 | 0.0 | 0.00 | 0.00 | 0.00 | 1015.2 | ||
| 20260503033949 | 0 | 0.0 | 0.0 | 0.00 | 0.00 | 0.00 | 1015.2 | ||
| 20260503032534 | 41 | 135 | 0.0 | 0.9 | 0.00 | 0.00 | 0.00 | 74 | 1015.2 |
| 20260503032020 | 41 | 135 | 0.0 | 0.0 | 0.00 | 0.00 | 0.00 | 73 | 1015.2 |
| 20260503031418 | 41 | 135 | 0.0 | 0.0 | 0.00 | 0.00 | 0.00 | 73 | 1015.2 |
| 20260503030918 | 41 | 135 | 0.0 | 0.0 | 0.00 | 0.00 | 0.00 | 73 | 1014.7 |
| 20260503030422 | 0 | 0.0 | 0.0 | 0.00 | 0.00 | 0.00 | 1015.2 | ||
| 20260503024020 | 0 | 0.0 | 0.0 | 0.00 | 0.00 | 0.00 | 1014.7 | ||
| 20260503021949 | 0 | 0.0 | 0.0 | 0.00 | 0.00 | 0.00 | 1014.7 | ||
| 20260503005918 | 0 | 0.0 | 0.0 | 0.00 | 0.00 | 0.00 | 1014.1 | ||
| 20260503003847 | 49 | 135 | 0.0 | 0.0 | 0.00 | 0.00 | 0.00 | 51 | 1013.7 |
| 20260503001946 | 0 | 0.0 | 0.0 | 0.00 | 0.00 | 0.00 | 1013.7 | ||
| 20260503000319 | 0 | 0.0 | 0.0 | 0.00 | 0.00 | 0.00 | 1013.3 | ||
| 20260502232945 | 53 | 135 | 3.5 | 1.7 | 0.00 | 0.00 | 0.00 | 44 | 1013.0 |
| 20260502231918 | 53 | 135 | 4.3 | 7.0 | 0.00 | 0.00 | 0.00 | 44 | 1013.0 |
| 20260502231417 | 0 | 0.0 | 0.0 | 0.00 | 0.00 | 0.00 | 1013.0 | ||
| 20260502225714 | 55 | 135 | 2.6 | 2.6 | 0.00 | 0.00 | 0.00 | 41 | 1013.0 |
| 20260502224818 | 0 | 0.0 | 0.0 | 0.00 | 0.00 | 0.00 | 1012.6 | ||
| 20260502221937 | 56 | 247 | 0.9 | 0.9 | 0.00 | 0.00 | 0.00 | 40 | 1012.6 |
| 20260502221435 | 56 | 135 | 0.9 | 0.9 | 0.00 | 0.00 | 0.00 | 40 | 1012.3 |
| 20260502220934 | 57 | 135 | 0.0 | 1.7 | 0.00 | 0.00 | 0.00 | 39 | 1012.3 |
| 20260502220417 | 58 | 135 | 0.9 | 2.6 | 0.00 | 0.00 | 0.00 | 39 | 1012.3 |
| 20260502215916 | 58 | 135 | 1.7 | 2.6 | 0.00 | 0.00 | 0.00 | 38 | 1012.3 |
| 20260502215414 | 59 | 135 | 2.6 | 2.6 | 0.00 | 0.00 | 0.00 | 37 | 1012.3 |
| 20260502213945 | 0 | 0.0 | 0.0 | 0.00 | 0.00 | 0.00 | 1011.8 | ||
| 20260502212143 | 0 | 0.0 | 0.0 | 0.00 | 0.00 | 0.00 | 1011.8 | ||
| 20260502210313 | 0 | 0.0 | 0.0 | 0.00 | 0.00 | 0.00 | 1011.5 |